彩虹 31星 (RADUGA 31)

导读 | 豆包AI

RADUGA 31(“虹”31)是独联体(CIS)所属俄罗斯“虹”系列第一代地球同步轨道通信卫星,于1994年2月18日发射升空。该卫星由俄罗斯应用力学科研生产联合体研制,基于KAUR-3平台打造,属于苏联解体后独联体时期继承的通信卫星项目,主要为东半球(极区除外)提供军事通信、民用电视转播及电报电话服务,是“虹”系列第一代卫星组网运营的重要组成部分,推动了区域通信覆盖能力建设。

Basic Information
目录编号:
23010
目录名称:
RADUGA 31
国际标识:
1994-012A
轨道中心:
EARTH
卫星名称:
彩虹 31星
卫星全名:
彩虹 31星 (RADUGA 31)
卫星状态:
在轨 (已飞行11712 天)
发射日期:
1994-02-18 UTC
国别 :
俄罗斯(独联体) (CIS)
星等 :
--
Orbit Information
数据来源 国际轨道数据 AOE轨道数据
星历时间 2026-03-13T04:31:05+0800
1天前
查看轨道信息
2026-03-13T02:00:00+0800
1天前
查看轨道信息
半长轴 42183.381km 42182.735km
偏心率 0.0000525 0.0000679
轨道倾角 14.174° 14.174°
近地点辐角 174.389° 156.152°
升交点赤经 348.953° 348.952°
平近点角 33.096° 13.493°
近地点 35803.029km 35801.733km
远地点 35807.459km 35807.463km
周期 1437.050分钟 1437.017分钟
每日圈数 1.002053 1.002076
Detailed Information
平衡模式:
三轴稳定
覆盖范围:
全球
运营商:
俄罗斯国家航天集团
运营商所在国:
俄罗斯
制造商(研发单位):
普里克拉德诺伊·梅哈尼基设计局
制造商所在国:
俄罗斯联邦
使用方式:
暂无
Satellite Introduction
彩虹卫星(Raduga, Gran)是苏联用于军事和通信目的的一系列地球静止通信卫星。彩虹卫星旨在支持军事通信、Orbita地面电视网络,并在整个东半球(极地地区除外)提供电话和电报通信。该卫星已退役。
2D Orbit Map
3D Orbit Map
Orbit Altitude Analysis Chart
Orbit Inclination Analysis Chart
Orbit Comprehensive Analysis Chart
View Comprehensive Chart